Weather History for KBVX - August, 2014

Change the Weather History Date:

Wednesday, August 13, 2014

  Actual Average Record
Temperature  
Mean Temperature 73 °F -  
Max Temperature 86 °F 90 °F 103 °F (1954)
Min Temperature 60 °F 65 °F 47 °F (1967)
Cooling Degree Days 8    
Growing Degree Days 23 (Base 50)    
Moisture  
Dew Point 58 °F    
Average Humidity 61    
Maximum Humidity 88    
Minimum Humidity 37    
Precipitation  
Precipitation 0.00 in - - ()
Sea Level Pressure  
Sea Level Pressure 30.08 in    
Wind  
Wind Speed 3 mph (WSW)    
Max Wind Speed 8 mph    
Max Gust Speed -    
Visibility 10 miles    
Events      
Averages and records for this station are not official NWS values.
T = Trace of Precipitation, MM = Missing Value Source: NWS Daily Summary

Daily Weather History Graph

Daily Weather History Graph

Search for Another Location

Airport or City:

Trip Planner

Search our weather history database for the weather conditions in past years. The results will help you decide how hot, cold, wet, or windy it might be!

Date:

Astronomy

Aug. 13, 2014 Rise Set
Actual Time 6:23 AM CDT 7:58 PM CDT
Civil Twilight 5:56 AM CDT 8:25 PM CDT
Nautical Twilight 5:23 AM CDT 8:58 PM CDT
Astronomical Twilight 4:49 AM CDT 9:32 PM CDT
Moon 9:53 PM CDT (8/13) 9:43 AM CDT (8/13)
Length of Visible Light 14h 28m
Length of Day
13h 34m
Waning Gibbous, 87% of the Moon is Illuminated
Aug 13
Waning Gibbous
Aug 17
Last Quarter
Aug 25
New
Sep 2
First Quarter
Sep 8
Full

Hourly Weather History & Observations

Time (CDT) Temp. Heat Index Dew Point Humidity Pressure Visibility Wind Dir Wind Speed Gust Speed Precip Events Conditions
12:15 AM 66.2 °F - 57.2 °F 73% 30.04 in 10.0 mi Calm Calm - N/A   Clear
12:35 AM 64.4 °F - 57.2 °F 77% 30.04 in 10.0 mi Calm Calm - N/A   Clear
12:55 AM 62.6 °F - 57.2 °F 82% 30.04 in 10.0 mi WSW 3.5 mph - N/A   Clear
1:15 AM 62.6 °F - 57.2 °F 82% 30.04 in 10.0 mi WNW 4.6 mph - N/A   Clear
1:35 AM 62.6 °F - 57.2 °F 82% 30.04 in 10.0 mi West 3.5 mph - N/A   Clear
1:55 AM 62.6 °F - 57.2 °F 82% 30.04 in 10.0 mi Calm Calm - N/A   Clear
2:15 AM 62.6 °F - 57.2 °F 82% 30.05 in 10.0 mi West 3.5 mph - N/A   Clear
2:35 AM 62.6 °F - 57.2 °F 82% 30.05 in 10.0 mi WNW 5.8 mph - N/A   Clear
2:55 AM 62.6 °F - 57.2 °F 82% 30.06 in 10.0 mi WNW 4.6 mph - N/A   Clear
3:15 AM 62.6 °F - 57.2 °F 82% 30.06 in 10.0 mi WNW 4.6 mph - N/A   Clear
3:35 AM 62.6 °F - 57.2 °F 82% 30.07 in 10.0 mi NW 4.6 mph - N/A   Clear
3:55 AM 62.6 °F - 57.2 °F 82% 30.07 in 10.0 mi WNW 4.6 mph - N/A   Clear
4:15 AM 60.8 °F - 57.2 °F 88% 30.08 in 10.0 mi WNW 4.6 mph - N/A   Clear
4:35 AM 60.8 °F - 57.2 °F 88% 30.07 in 10.0 mi NW 3.5 mph - N/A   Clear
4:55 AM 60.8 °F - 57.2 °F 88% 30.07 in 10.0 mi WNW 4.6 mph - N/A   Clear
5:15 AM 60.8 °F - 57.2 °F 88% 30.08 in 10.0 mi NW 5.8 mph - N/A   Clear
5:35 AM 60.8 °F - 57.2 °F 88% 30.09 in 10.0 mi WNW 4.6 mph - N/A   Clear
5:55 AM 60.8 °F - 57.2 °F 88% 30.10 in 10.0 mi NNW 4.6 mph - N/A   Clear
6:15 AM 60.8 °F - 55.4 °F 82% 30.10 in 10.0 mi NW 4.6 mph - N/A   Clear
6:35 AM 60.8 °F - 55.4 °F 82% 30.11 in 10.0 mi WNW 4.6 mph - N/A   Clear
8:35 AM 66.2 °F - 59.0 °F 78% 30.13 in 10.0 mi Calm Calm - N/A   Clear
9:15 AM 69.8 °F - 60.8 °F 73% 30.13 in 10.0 mi Calm Calm - N/A   Clear
9:35 AM 71.6 °F - 59.0 °F 64% 30.13 in 10.0 mi Calm Calm - N/A   Clear
10:15 AM 75.2 °F - 62.6 °F 65% 30.13 in 10.0 mi SW 4.6 mph - N/A   Clear
10:35 AM 77.0 °F - 60.8 °F 57% 30.13 in 10.0 mi Calm Calm - N/A   Clear
10:55 AM 78.8 °F - 55.4 °F 44% 30.13 in 10.0 mi ENE 3.5 mph - N/A   Clear
11:15 AM 80.6 °F 80.5 °F 55.4 °F 42% 30.13 in 10.0 mi East 4.6 mph - N/A   Clear
11:35 AM 80.6 °F 80.8 °F 57.2 °F 45% 30.13 in 10.0 mi East 5.8 mph - N/A   Clear
11:55 AM 80.6 °F 80.8 °F 57.2 °F 45% 30.12 in 10.0 mi SE 6.9 mph - N/A   Clear
12:15 PM 82.4 °F 82.0 °F 57.2 °F 42% 30.12 in 10.0 mi Calm Calm - N/A   Partly Cloudy
12:35 PM 82.4 °F 82.0 °F 57.2 °F 42% 30.12 in 9.0 mi East 4.6 mph - N/A   Partly Cloudy
12:55 PM 80.6 °F 80.8 °F 57.2 °F 45% 30.11 in 10.0 mi West 4.6 mph - N/A   Mostly Cloudy
1:15 PM 80.6 °F 80.8 °F 57.2 °F 45% 30.10 in 10.0 mi South 3.5 mph - N/A   Mostly Cloudy
1:35 PM 82.4 °F 82.0 °F 57.2 °F 42% 30.10 in 10.0 mi South 6.9 mph - N/A   Mostly Cloudy
1:55 PM 82.4 °F 82.0 °F 57.2 °F 42% 30.10 in 10.0 mi South 3.5 mph - N/A   Mostly Cloudy
2:15 PM 80.6 °F 80.5 °F 55.4 °F 42% 30.09 in 10.0 mi South 4.6 mph - N/A   Mostly Cloudy
2:35 PM 82.4 °F 81.7 °F 55.4 °F 39% 30.09 in 10.0 mi SSW 4.6 mph - N/A   Mostly Cloudy
2:55 PM 82.4 °F 81.7 °F 55.4 °F 39% 30.08 in 10.0 mi SSE 3.5 mph - N/A   Scattered Clouds
3:15 PM 84.2 °F 83.5 °F 57.2 °F 40% 30.08 in 10.0 mi SE 4.6 mph - N/A   Mostly Cloudy
3:35 PM 84.2 °F 83.5 °F 57.2 °F 40% 30.07 in 10.0 mi West 4.6 mph - N/A   Partly Cloudy
3:55 PM 84.2 °F 83.5 °F 57.2 °F 40% 30.06 in 10.0 mi NW 3.5 mph - N/A   Clear
4:15 PM 86.0 °F 84.9 °F 57.2 °F 37% 30.06 in 10.0 mi South 3.5 mph - N/A   Partly Cloudy
4:35 PM 86.0 °F 84.9 °F 57.2 °F 37% 30.05 in 10.0 mi Calm Calm - N/A   Partly Cloudy
4:55 PM 84.2 °F 83.5 °F 57.2 °F 40% 30.05 in 10.0 mi Calm Calm - N/A   Partly Cloudy
5:15 PM 84.2 °F 83.5 °F 57.2 °F 40% 30.05 in 10.0 mi WSW 4.6 mph - N/A   Scattered Clouds
5:35 PM 84.2 °F 83.5 °F 57.2 °F 40% 30.04 in 10.0 mi West 5.8 mph - N/A   Overcast
5:55 PM 84.2 °F 83.5 °F 57.2 °F 40% 30.04 in 10.0 mi Calm Calm - N/A   Mostly Cloudy
6:15 PM 86.0 °F 84.9 °F 57.2 °F 37% 30.04 in 10.0 mi Calm Calm - N/A   Mostly Cloudy
6:35 PM 86.0 °F 84.9 °F 57.2 °F 37% 30.04 in 10.0 mi Calm Calm - N/A   Mostly Cloudy
6:55 PM 84.2 °F 83.8 °F 59.0 °F 42% 30.04 in 10.0 mi SE 5.8 mph - N/A   Partly Cloudy
7:15 PM 82.4 °F 82.5 °F 59.0 °F 45% 30.04 in 10.0 mi ESE 8.1 mph - N/A   Partly Cloudy
7:55 PM 78.8 °F - 60.8 °F 54% 30.04 in 10.0 mi ESE 5.8 mph - N/A   Clear
8:35 PM 75.2 °F - 60.8 °F 61% 30.05 in 10.0 mi ESE 5.8 mph - N/A   Clear
8:55 PM 73.4 °F - 60.8 °F 65% 30.05 in 10.0 mi SE 3.5 mph - N/A   Clear
11:15 PM 68.0 °F - 60.8 °F 78% 30.07 in 10.0 mi Calm Calm - N/A   Clear
11:35 PM 66.2 °F - 60.8 °F 83% 30.07 in 10.0 mi Calm Calm - N/A   Clear
11:55 PM 66.2 °F - 60.8 °F 83% 30.08 in 10.0 mi Calm Calm - N/A   Clear